CAPE
0 0 0 0 0 0 0 0 0 0 0 0 0 0 0 0 0 0 0 0 0 20 63 7 52 137 177 129 76 31 1 18 0 0 65 85 77 132 222 218 231 123 105
0 0 0 0 0 0 0 0 0 0 0 0 0 0 0 0 0 0 0 0 0 0 11 48 57 155 141 62 19 0 1 36 11 8 88 112 108 191 268 299 240 160 70
0 0 0 0 0 0 0 0 0 0 0 0 0 0 0 0 0 18 19 3 0 23 41 44 61 100 128 102 65 153 175 147 69 65 36 2 52 63 107 123 177 184 82
0 0 0 0 0 0 0 0 0 0 0 0 0 3 5 1 0 0 28 37 16 21 60 97 70 80 69 75 97 82 125 3 0 0 0 0 0 27 71 140 114 108 54
0 0 0 0 0 0 0 0 0 0 0 5 2 8 6 0 0 0 1 8 21 22 73 117 139 163 148 122 144 160 118 44 0 0 0 0 0 6 85 81 118 21 4
1 1 0 0 0 0 0 0 0 0 0 1 0 0 0 0 0 0 0 0 8 19 73 111 157 329 238 196 141 186 165 61 4 0 0 0 7 37 70 80 10 7 3
1 0 0 0 1 1 1 0 0 0 0 1 9 4 6 0 0 0 0 0 0 34 74 132 162 359 411 215 74 98 118 34 1 21 0 0 13 8 27 37 1 1 0
0 0 0 0 0 2 7 5 1 0 1 4 2 6 0 0 0 0 0 0 0 38 52 123 317 228 170 215 173 148 137 19 0 0 0 0 1 7 49 51 7 0 0
0 1 1 1 1 1 4 2 1 1 0 2 4 4 3 0 0 0 0 3 11 14 43 101 197 166 52 63 190 123 29 3 0 0 1 0 0 0 6 0 0 0 0
2 2 1 1 1 3 5 22 12 5 2 4 2 1 2 0 0 0 3 18 55 23 16 64 32 135 35 4 76 104 49 6 0 0 0 0 0 0 0 0 0 0 0
2 2 2 1 1 3 4 15 21 11 4 5 2 1 0 0 0 0 1 28 34 26 44 10 38 11 16 0 6 8 8 0 0 0 0 0 0 0 0 0 0 0 0
2 3 3 2 2 4 1 5 8 6 4 2 2 1 0 0 0 0 38 1 0 37 0 1 14 0 0 0 8 0 0 0 0 0 0 0 0 0 0 0 0 0 0
4 4 2 2 1 1 1 0 3 5 2 0 1 2 0 0 0 5 0 0 0 1 61 3 0 0 1 0 0 0 2 17 7 0 0 0 0 0 0 0 0 0 0
5 4 3 1 2 1 1 1 6 2 2 1 2 2 1 0 13 25 0 0 0 0 0 0 2 1 0 0 8 19 0 0 0 0 0 0 0 0 0 0 2 9 37
6 5 3 2 2 1 1 1 0 0 0 0 0 1 0 0 2 0 0 0 2 8 2 3 0 0 0 0 0 0 0 0 0 0 0 0 0 0 83 118 79 39 54
7 5 3 4 2 1 1 2 0 0 0 0 0 0 0 0 0 0 0 0 8 0 2 0 0 0 0 0 0 0 0 0 0 0 0 0 0 0 0 93 116 93 62
6 5 5 5 1 1 1 4 0 0 0 0 0 0 0 0 0 0 0 0 21 15 0 0 0 0 0 0 0 0 0 0 0 0 0 0 0 0 26 98 187 123 92
4 4 6 5 4 3 0 2 1 0 0 0 0 0 0 0 0 1 0 0 0 0 0 0 0 0 0 0 0 0 0 0 0 0 0 0 0 0 1 71 221 251 228
3 4 4 5 5 3 2 0 0 0 0 0 0 0 0 0 0 0 0 0 0 1 0 0 0 0 0 0 0 0 0 0 0 0 0 0 0 0 14 23 37 112 270
2 3 4 5 6 6 4 4 1 0 0 0 0 0 0 0 0 0 0 0 0 0 0 0 0 0 0 0 0 0 0 0 0 0 0 0 0 0 18 33 58 34 165
1 2 2 3 4 5 6 7 4 2 0 0 0 0 0 0 0 0 0 0 0 0 0 0 0 0 0 0 0 0 0 0 0 0 0 0 0 6 10 58 65 43 53
1 2 2 3 2 4 5 5 5 7 3 1 2 0 0 0 0 0 0 1 0 0 0 0 0 0 0 0 0 0 0 0 0 0 0 0 0 0 2 90 138 168 92
0 2 2 2 1 2 3 4 5 5 6 6 5 5 1 0 0 0 0 0 0 0 0 0 0 0 0 0 0 0 0 0 0 0 0 0 0 0 0 0 0 95 120
0 0 1 2 1 1 2 3 3 4 5 6 8 6 6 6 3 3 1 0 0 0 0 0 0 0 0 0 0 0 0 0 0 0 0 0 0 0 0 0 0 0 102
0 0 0 1 1 3 2 1 2 2 4 4 5 5 5 6 6 5 4 1 0 0 0 0 0 0 0 0 0 0 0 0 0 0 0 0 0 0 0 0 0 0 61
0 0 0 0 0 0 2 3 3 1 2 3 4 4 4 5 5 6 6 5 5 1 0 0 0 0 0 0 0 0 0 0 0 0 0 0 0 0 0 0 0 0 65
CIN
-0 -0 -0 -0 -0 -0 -0 -0 -0 -0 -0 -0 -0 -0 -0 -0 -0 -0 -0 -0 -0 -57 -45 -21 -10 -7 -7 -17 -66 -103 -0 -211 -0 -0 -120 -51 -68 -80 -146 -162 -163 -164 -183
-0 -0 -0 -0 -0 -0 -0 -0 -0 -0 -0 -0 -0 -0 -0 -0 -0 -0 -0 -0 -0 -0 -57 -33 -32 -19 -4 -26 -108 -0 -0 -126 -169 -180 -61 -46 -73 -64 -80 -91 -113 -129 -175
-0 -0 -0 -0 -0 -0 -0 -0 -0 -0 -0 -0 -0 -0 -0 -0 -0 -70 -79 -104 -26 -88 -63 -46 -36 -36 -7 -14 -22 -26 -42 -11 -28 -39 -49 -51 -41 -82 -52 -88 -93 -94 -155
-0 -0 -0 -0 -0 -0 -0 -0 -0 -0 -0 -0 -0 -0 -1 -0 -0 -15 -47 -60 -99 -87 -83 -57 -55 -46 -27 -27 -41 -45 -74 -75 -0 -0 -89 -0 -0 -96 -54 -32 -63 -100 -114
-0 -0 -0 -0 -0 -0 -0 -0 -0 -0 -0 -0 -1 -1 -1 -0 -0 -3 -55 -50 -36 -56 -78 -72 -49 -47 -43 -25 -30 -33 -45 -97 -0 -0 -0 -0 -0 -24 -32 -51 -54 -92 -107
-0 -0 -0 -0 -0 -0 -0 -0 -0 -0 -0 -1 -0 -0 -0 -0 -0 -0 -0 -0 -38 -33 -70 -78 -61 -15 -31 -25 -73 -70 -85 -84 -50 -0 -42 -0 -152 -30 -71 -59 -20 -83 -66
-0 -0 -0 -0 -0 -0 -6 -0 -2 -0 -0 -0 -0 -0 -0 -1 -0 -0 -0 -0 -0 -36 -72 -32 -30 -5 -4 -21 -105 -106 -76 -99 -98 -197 -0 -58 -121 -53 -79 -71 -30 -97 -0
-0 -0 -0 -0 -0 -0 -0 -0 -0 -0 -0 -0 -0 -0 -0 -0 -0 -0 -0 -0 -0 -32 -42 -2 -0 -4 -23 -25 -65 -61 -48 -111 -0 -0 -0 -0 -92 -153 -76 -74 -120 -0 -0
-0 -0 -0 -0 -0 -0 -2 -0 -0 -1 -1 -0 -0 -0 -0 -0 -0 -0 -0 -13 -19 -23 -17 -0 -6 -7 -63 -67 -24 -54 -74 -77 -0 -0 -28 -0 -0 -0 -119 -0 -0 -0 -0
-0 -0 -0 -0 -0 -0 -0 -0 -1 -4 -3 -0 -0 -0 -0 -0 -0 -0 -39 -28 -12 -11 -8 -1 -32 -10 -46 -27 -49 -86 -31 -97 -0 -0 -0 -0 -0 -0 -0 -0 -0 -0 -0
-0 -0 -0 -0 -0 -0 -0 -0 -0 -1 -4 -0 -0 -0 -0 -0 -0 -0 -40 -29 -6 -3 -8 -8 -36 -98 -95 -0 -98 -103 -87 -0 -0 -0 -0 -0 -0 -0 -0 -0 -0 -0 -0
-0 -0 -0 -0 -0 -0 -1 -1 -2 -0 -0 -0 -0 -0 -0 -0 -0 -0 -42 -30 -7 -0 -0 -0 -45 -0 -0 -0 -175 -0 -0 -0 -0 -0 -0 -0 -0 -0 -0 -0 -0 -0 -0
-0 -0 -0 -0 -0 -0 -0 -0 -2 -0 -0 -0 -0 -2 -0 -0 -0 -37 -40 -0 -0 -22 -2 -4 -0 -0 -0 -0 -0 -0 -86 -105 -110 -0 -0 -0 -0 -0 -0 -0 -0 -0 -0
-0 -0 -0 -0 -0 -0 -0 -0 -0 -0 -0 -0 -0 -0 -0 -5 -24 -16 -1 -0 -0 -0 -0 -0 -0 -0 -0 -0 -89 -112 -0 -0 -0 -0 -0 -0 -0 -0 -0 -0 -9 -87 -84
-0 -0 -0 -0 -0 -0 -0 -0 -0 -0 -0 -0 -0 -0 -0 -0 -25 -0 -0 -0 -3 -49 -0 -0 -0 -0 -0 -0 -0 -0 -0 -0 -0 -0 -0 -0 -0 -0 -39 -34 -55 -79 -126
-0 -0 -0 -0 -0 -0 -0 -0 -0 -0 -0 -0 -0 -0 -0 -0 -0 -0 -0 -0 -30 -0 -4 -0 -0 -0 -0 -0 -0 -0 -0 -0 -0 -0 -0 -0 -0 -0 -0 -54 -66 -94 -88
-0 -0 -0 -0 -0 -0 -0 -2 -0 -0 -0 -0 -0 -0 -0 -0 -0 -0 -0 -0 -39 -34 -0 -0 -0 -0 -0 -0 -0 -0 -0 -0 -0 -0 -0 -0 -0 -0 -113 -50 -17 -18 -49
-0 -0 -0 -0 -0 -0 -0 -0 -9 -0 -0 -0 -0 -0 -0 -0 -0 -0 -0 -0 -0 -0 -0 -0 -0 -0 -0 -0 -0 -0 -0 -0 -0 -0 -0 -0 -0 -0 -53 -131 -46 -27 -46
-0 -0 -0 -0 -0 -0 -0 -0 -0 -0 -0 -0 -0 -0 -0 -0 -0 -0 -0 -0 -0 -21 -0 -0 -0 -0 -0 -0 -0 -0 -0 -0 -0 -0 -0 -0 -0 -0 -216 -221 -228 -181 -75
-0 -0 -0 -0 -0 -0 -0 -0 -0 -0 -0 -0 -0 -0 -0 -0 -0 -0 -0 -0 -0 -0 -0 -0 -0 -0 -0 -0 -0 -0 -0 -0 -0 -0 -0 -0 -0 -0 -211 -224 -255 -291 -154
-0 -0 -0 -0 -0 -0 -0 -0 -0 -0 -0 -0 -0 -0 -0 -0 -0 -0 -0 -0 -0 -0 -0 -0 -0 -0 -0 -0 -0 -0 -0 -0 -0 -0 -0 -0 -0 -181 -241 -209 -218 -250 -276
-0 -0 -0 -0 -0 -0 -0 -0 -0 -0 -0 -0 -0 -0 -0 -0 -0 -0 -0 -0 -0 -0 -0 -0 -0 -0 -0 -0 -0 -0 -0 -0 -0 -0 -0 -0 -0 -0 -25 -147 -144 -128 -212
-0 -0 -0 -0 -0 -0 -0 -0 -0 -0 -0 -0 -0 -0 -0 -0 -0 -0 -0 -0 -0 -0 -0 -0 -0 -0 -0 -0 -0 -0 -0 -0 -0 -0 -0 -0 -0 -0 -0 -0 -0 -157 -148
-0 -0 -0 -0 -0 -0 -0 -0 -0 -0 -0 -0 -0 -0 -0 -0 -0 -0 -0 -0 -0 -0 -0 -0 -0 -0 -0 -0 -0 -0 -0 -0 -0 -0 -0 -0 -0 -0 -0 -0 -0 -0 -191
-0 -0 -0 -0 -0 -0 -0 -0 -0 -0 -0 -0 -0 -0 -0 -0 -0 -0 -0 -0 -0 -0 -0 -0 -0 -0 -0 -0 -0 -0 -0 -0 -0 -0 -0 -0 -0 -0 -0 -0 -0 -0 -183
-0 -0 -0 -0 -0 -0 -0 -0 -0 -0 -0 -0 -0 -0 -0 -0 -0 -0 -0 -0 -0 -0 -0 -0 -0 -0 -0 -0 -0 -0 -0 -0 -0 -0 -0 -0 -0 -0 -0 -0 -0 -0 -121
Wind_Speed
47 49 50 51 52 51 51 51 50 49 48 47 46 46 45 44 42 41 40 39 40 40 39 40 42 43 44 41 38 35 37 37 36 32 42 41 36 31 26 21 17 15 16
45 47 49 48 48 50 48 46 46 48 48 49 49 49 48 47 45 44 43 42 42 42 41 40 40 40 44 40 38 35 32 32 34 31 32 36 32 31 27 22 19 19 21
45 45 47 45 44 44 45 45 45 44 47 48 50 50 49 47 45 45 44 43 42 42 42 41 41 39 40 41 41 37 29 24 23 23 25 27 31 33 27 27 25 22 24
42 43 44 43 41 41 42 44 45 46 48 48 47 46 46 46 45 42 43 44 44 43 44 45 45 41 38 37 35 31 24 20 22 25 27 34 32 42 34 24 27 25 25
43 43 41 40 41 42 43 44 46 46 47 47 47 45 45 46 45 41 38 39 41 43 45 48 51 47 40 34 34 35 33 31 29 29 29 28 32 35 32 26 24 28 26
42 41 41 41 43 45 45 44 44 44 46 46 46 45 44 42 41 41 41 41 43 44 45 50 54 53 45 37 36 36 36 34 35 33 33 22 27 28 32 27 23 25 25
38 39 41 43 43 44 44 44 44 45 46 47 46 41 40 39 39 43 48 44 42 44 47 50 51 49 41 38 38 39 41 37 32 30 33 23 27 27 26 28 23 24 22
40 42 41 43 44 44 45 45 43 39 37 37 37 37 39 40 43 44 44 41 42 43 44 47 43 43 37 37 33 36 40 38 31 27 27 20 23 20 24 24 20 22 21
41 40 40 40 42 46 46 43 38 33 31 31 34 32 36 40 40 39 37 32 41 43 42 39 41 33 30 27 27 29 31 28 22 20 19 21 23 24 24 22 24 23 23
39 38 38 39 42 43 41 40 30 26 19 16 20 31 36 38 37 36 33 35 38 40 41 37 36 25 26 20 23 23 25 20 14 12 12 10 20 30 26 27 23 21 18
36 36 36 38 39 37 38 36 29 27 23 21 14 23 31 33 33 32 32 33 37 39 33 33 17 19 21 25 20 19 17 15 13 11 9 13 23 25 24 23 17 17 16
33 33 36 36 34 33 35 35 30 28 26 16 9 27 28 28 29 30 31 32 37 37 29 27 26 24 25 36 25 26 15 17 14 11 14 19 21 23 23 20 18 17 15
30 31 35 35 32 30 31 28 16 19 8 24 24 21 22 23 24 27 28 27 32 35 30 24 30 30 13 18 24 22 18 15 14 13 14 18 22 25 21 18 17 16 13
27 30 34 35 30 29 24 18 11 5 15 17 14 16 18 20 22 24 25 25 26 21 18 9 17 21 17 23 19 18 15 14 12 13 15 18 19 21 19 15 13 10 9
27 31 33 32 27 26 21 15 10 7 11 11 13 15 18 20 21 22 24 23 18 17 11 23 23 19 19 20 18 15 14 11 11 13 16 18 17 15 12 11 10 8 9
29 31 32 29 27 24 19 9 5 11 12 11 12 14 17 19 21 23 23 24 19 18 19 21 19 21 19 17 16 14 13 12 15 16 15 12 13 13 13 13 11 10 8
29 29 30 28 26 22 21 14 7 8 10 11 11 13 15 16 21 23 26 31 15 24 18 21 20 19 21 24 23 22 20 17 13 11 10 8 8 9 10 11 13 13 11
32 30 31 29 24 21 20 6 5 5 5 6 10 14 15 16 15 10 10 21 25 23 26 23 26 28 25 16 15 14 12 10 8 6 6 7 7 6 7 10 12 13 13
34 32 27 27 23 18 13 2 6 5 5 4 7 12 9 7 8 3 6 12 19 19 23 24 23 21 13 12 10 7 5 5 5 6 6 6 7 6 6 7 9 12 12
35 37 36 28 25 19 11 1 12 12 10 9 8 9 12 13 9 5 6 11 11 14 17 22 25 20 14 12 10 6 5 3 3 5 5 6 7 9 6 7 8 11 13
37 36 36 32 26 22 15 4 9 17 17 16 15 14 15 12 8 7 7 11 10 14 15 16 17 17 17 15 12 8 6 6 7 6 6 9 10 12 12 10 11 11 11
37 36 35 35 35 20 17 17 10 16 19 20 20 19 17 15 12 10 10 12 16 17 17 19 20 18 18 17 14 10 7 8 10 10 8 8 9 11 15 16 16 16 14
37 37 36 34 33 33 29 8 12 24 20 21 22 21 20 18 17 16 18 17 17 17 18 21 24 23 22 22 20 15 14 15 16 14 11 11 11 14 16 18 19 19 18
37 37 37 36 35 32 30 29 22 19 28 24 22 22 22 22 22 21 19 24 23 24 23 23 23 26 26 23 23 22 22 20 20 21 19 17 18 19 21 22 23 22 20
37 37 36 36 36 35 33 31 29 27 24 27 25 23 23 24 24 25 25 25 26 30 31 31 28 26 29 28 26 27 26 24 27 25 22 23 25 25 26 27 26 24 21
37 37 36 36 36 35 35 33 31 30 29 27 27 26 26 24 25 26 27 28 29 29 31 32 35 37 35 33 31 28 26 27 28 28 29 30 31 30 29 29 27 26 24
Wind_Direction
305 302 301 302 302 302 301 300 298 297 296 294 294 293 291 286 283 282 281 281 282 284 284 281 278 274 271 271 269 268 272 271 267 271 262 271 274 276 277 275 277 286 299
309 308 308 309 308 305 305 304 303 300 298 294 292 289 288 287 284 281 281 280 280 281 280 278 277 276 271 267 264 266 270 272 268 256 259 271 273 271 269 269 274 283 289
312 312 309 310 311 310 309 308 307 304 301 298 295 290 286 284 284 280 279 280 280 280 280 278 275 272 270 266 264 264 265 264 260 261 264 275 268 267 270 268 270 278 279
316 313 312 314 316 314 313 312 311 308 304 301 298 290 287 284 281 281 278 278 277 278 278 276 274 270 266 263 257 253 246 244 251 260 269 273 280 255 264 265 265 269 272
315 317 319 319 319 317 316 314 312 310 306 301 298 292 289 285 279 277 278 279 277 278 279 276 270 267 262 254 251 249 248 250 254 258 267 283 258 258 255 259 259 260 269
321 324 326 325 324 321 319 317 314 311 309 303 297 293 290 286 281 271 272 278 280 278 279 278 270 263 259 250 247 248 246 248 255 265 267 255 252 252 246 247 249 254 267
332 334 332 330 328 326 323 319 315 312 309 305 298 293 290 290 286 277 269 272 279 279 278 275 269 260 258 251 248 249 250 251 253 262 260 250 250 257 233 235 240 252 264
335 335 337 336 333 331 327 323 319 317 315 312 306 297 291 289 281 276 271 263 275 277 277 274 265 258 255 248 246 248 248 253 255 256 257 244 250 227 230 231 236 248 259
338 342 341 340 337 335 331 329 325 323 323 319 311 300 291 285 280 275 275 260 270 272 274 269 257 257 248 239 240 241 246 248 253 247 250 254 246 229 229 224 234 242 254
346 346 346 344 342 339 340 339 337 332 332 330 325 299 285 278 271 267 266 264 268 267 264 264 256 247 237 213 229 229 234 231 223 226 244 246 218 215 219 228 233 239 253
352 351 350 348 347 347 346 344 341 337 339 337 334 237 247 252 262 255 266 265 251 255 255 254 253 221 215 186 199 206 217 198 203 203 198 202 209 213 221 229 235 240 249
356 357 356 355 353 354 353 349 345 341 343 358 343 255 263 258 251 252 257 256 248 245 248 252 236 231 169 174 203 221 199 171 178 191 198 204 212 217 223 230 238 248 260
1 1 0 360 359 359 359 2 5 2 30 345 274 241 238 241 246 253 255 257 246 244 237 250 215 211 168 171 190 180 160 171 170 182 186 209 218 219 227 234 242 251 260
4 4 4 5 6 7 8 16 34 107 4 276 243 239 245 243 251 262 256 256 234 251 257 236 178 172 157 174 160 173 172 174 169 182 199 209 215 218 224 231 235 236 242
9 10 11 12 12 12 16 28 58 183 221 240 246 244 253 252 258 262 256 255 246 215 193 179 170 162 160 167 169 169 178 180 185 197 201 207 212 216 222 225 227 228 242
14 15 16 16 19 22 25 39 193 208 220 238 250 248 256 242 261 259 233 221 226 202 176 165 166 168 155 165 173 174 177 179 187 193 198 203 213 221 223 231 232 238 238
20 21 20 24 27 31 34 67 188 238 237 251 262 273 277 260 283 274 199 181 195 181 175 175 172 170 177 181 183 184 187 193 195 198 200 201 211 222 227 233 240 242 247
19 25 26 29 34 42 52 109 182 194 210 269 296 297 312 310 300 300 181 177 181 187 185 183 182 183 185 184 188 189 191 195 200 208 218 225 222 222 231 238 244 246 249
15 25 33 36 42 49 64 152 239 210 245 266 315 326 289 287 309 58 165 186 180 191 188 190 194 194 183 192 192 186 182 205 223 237 244 248 242 240 248 257 258 255 259
8 7 22 39 44 53 58 136 284 273 265 277 291 307 317 310 289 291 212 179 195 194 200 205 205 206 201 211 217 212 215 238 280 285 284 279 270 258 257 264 273 269 267
359 355 0 31 46 52 62 40 285 287 275 281 293 301 315 317 310 261 210 212 218 210 214 214 218 221 221 229 235 233 231 252 270 287 291 278 270 257 256 265 271 278 287
358 356 354 6 12 52 59 64 311 306 297 287 290 293 300 313 304 262 249 249 238 231 232 228 228 232 232 236 238 236 240 253 260 267 281 286 281 272 262 262 269 275 287
0 359 357 354 349 351 342 47 325 333 319 311 300 300 298 297 298 292 270 254 245 245 248 242 239 240 240 240 243 248 251 254 256 260 266 275 281 279 274 274 273 273 281
-0 359 1 356 351 344 339 338 321 317 348 331 320 304 302 296 290 281 266 254 256 256 257 254 253 249 250 254 254 255 257 257 258 256 262 266 272 277 279 278 275 273 280
1 359 358 356 353 348 344 338 331 329 318 337 331 318 307 300 296 287 280 283 282 268 260 254 254 260 255 256 259 257 259 260 257 259 259 260 266 274 275 276 272 272 276
1 360 357 354 353 350 346 340 335 330 328 316 323 319 316 305 299 297 294 288 280 276 267 266 262 261 260 262 261 261 261 261 255 253 256 259 263 270 272 273 271 269 267